EHI
0 0 0 0 0 0 0 0 0 0 0 0 0 0 0 0 0 0 0 0 0 0 0 0 0 0 0 0 0 0 0 0 0 0 0 0 0 0 0 0 0 0 0 0
0 0 0 0 0 0 0 0 0 0 0 0 0 0 0 0 0 0 0 0 0 0 0 0 0 0 0 0 0 0 0 0 0 0 0 0 0 0 0 0 0 0 0 0
0 0 0 0 0 0 0 0 0 0 0 0 0 0 0 0 0 0 0 0 0 0 0 0 0 0 0 0 0 0 0 0 0 0 0 0 0 0 0 0 0 0 0 0
0 0 0 0 0 0 0 0 0 0 0 0 0 0 0 0 0 0 0 0 0 0 0 0 0 0 0 0 0 0 0 0 0 0 0 0 0 0 0 0 0 0 0 0
0 0 0 0 0 0 0 0 0 0 0 0 0 0 0 0 0 0 0 0 0 0 0 0 0 0 0 0 0 0 0 0 0 0 0 0 0 0 0 0 0 0 0 0
0 0 0 0 0 0 0 0 0 0 0 0 0 0 0 0 0 0 0 0 0 0 0 0 0 0 0 0 0 0 0 0 0 0 0 0 0 0 0 0 0 0 0 0
0 0 0 0 0 0 0 0 0 0 0 0 0 0 0 0 0 0 0 0 0 0 0 0 0 0 0 0 0 0 0 0 0 0 0 0 0 0 0 0 0 0 0 0
0 0 0 0 0 0 0 0 0 0 0 0 0 0 0 0 0 0 0 0 0 0 0 0 0 0 0 0 0 0 0 0 0 0 0 0 0 0 0 0 0 0 0 0
0 0 0 0 0 0 0 0 0 0 0 0 0 0 0 0 0 0 0 0 0 0 0 0 0 0 0 0 0 0 0 0 0 0 0 0 0 0 0 0 0 0 0 0
0 0 0 0 0 0 0 0 0 0 0 0 0 0 0 0 0 0 0 0 0 0 0 0 0 0 0 0 0 0 0 0 0 0 0 0 0 0 0 0 0 0 0 0
0 0 0 0 0 0 0 0 0 0 0 0 0 0 0 0 0 0 0 0 0 0 0 0 0 0 0 0 0 0 0 0 0 0 0 0 0 0 0 0 0 0 0 0
0 0 0 0 0 0 0 0 0 0 0 0 0 0 0 0 0 0 0 0 0 0 0 0 0 0 0 0 0 0 0 0 0 0 0 0 0 0 0 0 0 0 0 0
0 0 0 0 0 0 0 0 0 0 0 0 0 0 0 0 0 0 0 0 0 0 0 0 0 0 0 0 0 0 0 0 0 0 0 0 0 0 0 0 0 0 0 0
0 0 0 0 0 0 0 0 0 0 0 0 0 0 0 0 0 0 0 0 0 0 0 0 0 0 0 0 0 0 0 0 0 0 0 0 0 0 0 0 0 0 0 0
0 0 0 0 0 0 0 0 0 0 0 0 0 0 0 0 0 0 0 0 0 0 0 0 0 0 0 0 0 0 0 0 0 0 0 0 0 0 0 0 0 0 0 0
0 0 0 0 0 0 0 0 0 0 0 0 0 0 0 0 0 0 0 0 0 0 0 0 0 0 0 0 0 0 0 0 0 0 0 0 0 0 0 0 0 0 0 0
0 0 0 0 0 0 0 0 0 0 0 0 0 0 0 0 0 0 0 0 0 0 0 0 0 0 0 0 0 0 0 0 0 0 0 0 0 0 0 0 0 0 0 0
0 0 0 0 0 0 0 0 0 0 0 0 0 0 0 0 0 0 0 0 0 0 0 0 0 0 0 0 0 0 0 0 0 0 0 0 0 0 0 0 0 0 0 0
0 0 0 0 0 0 0 0 0 0 0 0 0 0 0 0 0 0 0 0 0 0 0 0 0 0 0 0 0 0 0 0 0 0 0 0 0 0 0 0 0 0 0 0
0 0 0 0 0 0 0 0 0 0 0 0 0 0 0 0 0 0 0 0 0 0 0 0 0 0 0 0 0 0 0 0 0 0 0 0 0 0 0 0 0 0 0 0
0 0 0 0 0 0 0 0 0 0 0 0 0 0 0 0 0 0 0 0 0 0 0 0 0 0 0 0 0 0 0 0 0 0 0 0 0 0 0 0 0 0 0 0
0 0 0 0 0 0 0 0 0 0 0 0 0 0 0 0 0 0 0 0 0 0 0 0 0 0 0 0 0 0 0 0 0 0 0 0 0 0 0 0 0 0 0 0
0 0 0 0 0 0 0 0 0 0 0 0 0 0 0 0 0 0 0 0 0 0 0 0 0 0 0 0 0 0 0 0 0 0 0 0 0 0 0 0 0 0 0 0
0 0 0 0 0 0 0 0 0 0 0 0 0 0 0 0 0 0 0 0 0 0 0 0 0 0 0 0 0 0 0 0 0 0 0 0 0 0 0 0 0 0 0 0
0 0 0 0 0 0 0 0 0 0 0 0 0 0 0 0 0 0 0 0 0 0 0 0 0 0 0 0 0 0 0 0 0 0 0 0 0 0 0 0 0 0 0 0
0 0 0 0 0 0 0 0 0 0 0 0 0 0 0 0 0 0 0 0 0 0 0 0 0 0 0 0 0 0 0 0 0 0 0 0 0 0 0 0 0 0 0 0
Wind_Speed
3 3 4 7 7 5 2 4 8 9 4 6 12 21 25 13 10 15 15 13 15 19 14 9 12 12 12 14 15 16 15 13 10 6 5 5 5 5 5 6 7 8 7 7
4 5 8 3 3 3 3 5 8 8 2 5 9 18 20 13 12 15 16 16 17 14 9 10 12 14 17 18 18 17 17 16 15 10 6 4 4 4 4 5 7 8 8 7
6 6 1 3 3 3 4 6 6 6 5 3 7 14 10 7 4 6 9 10 11 15 15 12 14 16 17 19 21 19 19 18 16 12 6 3 2 2 3 5 6 8 8 8
5 5 2 3 4 4 7 6 5 4 4 6 3 11 14 6 8 8 10 10 13 13 13 12 14 15 20 21 18 18 18 18 16 15 12 11 10 9 10 6 6 7 8 8
6 2 3 5 5 5 6 1 1 2 2 5 3 5 15 6 8 9 8 10 12 12 13 14 16 18 18 16 15 17 16 17 17 17 17 15 12 9 5 5 7 8 7 8
6 3 3 4 0 1 1 2 3 4 3 4 4 5 13 7 8 7 6 5 8 8 10 12 11 10 12 12 14 15 17 18 17 18 18 18 16 12 9 9 9 8 6 7
7 4 2 1 1 2 2 3 5 6 3 6 2 4 16 12 8 7 10 10 7 6 7 9 10 12 13 14 17 16 18 20 19 19 19 19 18 16 16 13 12 10 7 7
4 7 2 2 4 3 2 4 4 4 5 7 4 9 15 10 8 8 9 10 9 8 7 9 11 11 12 14 16 17 20 21 19 20 20 18 16 13 12 13 10 11 9 9
3 6 2 0 1 5 3 3 3 3 3 5 9 10 16 7 6 6 7 8 10 10 8 9 9 9 11 13 16 19 20 20 20 21 19 17 17 15 14 12 11 9 8 8
4 5 4 2 1 1 2 5 4 2 3 7 9 8 8 10 9 8 8 9 10 9 9 9 8 9 9 11 11 13 17 20 19 18 18 16 17 17 14 12 13 12 11 10
3 3 6 3 4 5 4 3 3 2 3 4 7 11 9 9 9 9 11 10 10 10 10 9 8 7 7 8 9 13 15 16 16 18 18 17 16 16 14 14 14 13 11 11
3 4 5 7 3 3 6 6 7 4 6 5 5 14 10 9 9 8 11 11 10 10 10 10 9 7 7 8 10 12 14 16 17 16 16 17 15 14 15 16 14 13 12 12
5 4 4 7 3 0 2 4 6 4 2 5 6 16 6 6 9 8 10 12 12 11 11 9 8 7 8 9 10 12 13 15 14 13 15 16 16 16 17 17 14 14 13 12
6 4 7 9 8 3 5 6 6 7 6 8 14 21 23 22 20 16 12 12 12 11 11 10 9 9 8 8 10 11 13 13 13 13 15 17 18 19 18 15 14 14 14 13
4 5 7 9 9 5 8 15 11 13 13 13 18 20 28 24 18 15 11 10 11 12 12 10 10 9 9 8 9 11 12 12 13 15 17 19 17 15 15 15 15 14 14 14
3 4 3 6 6 5 9 18 18 16 13 15 20 24 24 17 9 9 10 9 10 12 12 12 11 10 10 10 10 11 13 12 13 16 19 16 15 15 16 16 15 14 14 13
5 6 3 6 4 5 11 15 11 9 10 11 13 15 9 9 11 10 10 10 10 11 12 12 12 11 11 11 10 11 11 10 13 16 16 15 15 16 16 15 15 15 15 13
8 6 3 3 2 10 12 4 7 9 11 12 12 12 11 12 11 10 9 7 9 10 11 13 12 12 12 11 9 8 8 10 13 15 15 15 16 17 15 15 16 15 13 13
6 7 4 3 6 12 11 10 6 7 10 8 10 12 10 8 7 7 6 4 8 11 13 13 13 13 12 12 9 7 8 9 12 15 16 16 16 16 15 17 16 14 12 11
3 3 4 5 6 11 12 4 2 1 8 5 3 5 7 6 8 9 8 10 13 14 13 13 12 11 12 12 7 7 9 10 15 16 15 13 14 16 16 16 14 11 11 11
3 3 6 7 9 14 11 2 2 3 9 4 3 7 7 6 9 12 13 13 13 14 14 13 12 11 12 10 6 9 10 14 14 11 10 11 13 15 14 12 11 10 10 9
9 7 8 6 7 14 6 5 7 9 5 6 8 8 9 11 12 12 12 13 13 13 13 12 11 13 12 9 7 10 14 13 9 8 10 11 12 12 11 11 10 10 10 10
9 11 8 13 13 7 4 8 7 5 9 9 9 10 11 11 11 12 10 11 11 12 12 11 11 13 13 9 7 12 14 10 7 8 10 10 10 11 10 11 12 10 10 9
7 5 6 10 12 10 10 9 9 9 11 11 10 10 8 9 11 11 10 10 11 11 12 11 11 13 15 13 10 11 12 8 7 9 9 8 9 9 10 9 10 10 10 10
8 5 7 14 13 10 8 8 9 9 8 9 8 7 7 8 9 9 10 11 11 10 10 9 11 13 15 14 14 12 9 7 8 8 8 7 8 8 9 10 10 11 11 11
9 11 13 20 14 13 14 8 8 8 7 7 7 8 8 7 9 10 10 10 10 12 11 12 12 13 15 14 15 12 9 7 8 8 7 6 6 7 8 8 7 15 13 17
Wind_Direction
32 56 243 232 211 218 239 247 266 265 232 201 245 261 270 259 224 238 239 231 230 234 234 205 197 195 193 195 197 197 195 190 177 169 174 181 203 201 201 204 201 198 197 196
14 270 246 227 186 202 230 266 275 285 233 217 277 276 272 261 235 233 234 231 231 235 228 207 197 196 199 200 201 200 200 193 191 190 176 174 172 187 197 198 200 200 198 198
222 249 217 171 196 218 244 232 253 276 318 282 310 295 286 288 254 252 237 233 229 227 228 214 203 203 203 205 204 203 202 198 196 186 161 144 134 145 180 201 205 204 200 202
253 263 214 220 241 203 265 248 238 279 323 300 357 302 293 287 295 264 245 232 233 230 226 217 208 207 209 211 204 205 201 200 195 186 187 185 191 199 201 193 195 197 200 203
270 240 210 230 240 193 232 309 276 292 250 300 279 246 284 317 294 281 260 237 234 228 222 222 216 215 214 208 203 204 202 202 196 195 198 199 207 207 182 180 190 200 205 208
254 272 217 221 246 165 140 45 52 54 69 293 243 202 282 267 249 286 299 274 248 236 227 231 226 215 213 202 201 200 202 206 200 199 202 204 208 200 188 194 199 203 206 210
319 312 261 158 120 27 85 58 351 340 346 264 211 221 256 258 249 254 280 294 295 263 235 232 224 215 213 203 202 201 203 208 203 202 205 208 209 203 203 201 203 201 203 208
316 305 260 207 202 194 180 146 172 262 273 292 288 243 259 268 275 263 264 276 287 273 248 237 230 221 216 209 203 201 205 210 204 205 209 209 208 206 210 207 201 203 206 209
224 276 299 209 211 158 159 197 172 164 283 283 279 286 296 297 302 291 282 283 279 276 266 252 244 228 220 212 207 204 207 210 207 207 208 208 207 208 209 205 204 205 207 206
178 272 296 330 66 20 159 153 106 138 277 286 290 277 263 297 308 320 318 303 290 288 281 269 255 241 229 221 214 206 209 212 210 207 207 209 209 210 208 202 205 206 206 205
158 222 301 322 215 203 143 160 161 169 195 223 280 271 239 247 273 295 298 295 289 288 282 275 266 250 236 222 210 209 212 213 211 209 208 210 208 207 205 207 209 207 205 204
138 133 271 269 244 176 182 194 162 186 241 209 241 270 262 257 270 274 282 290 289 282 278 274 270 262 244 229 219 216 214 215 215 209 207 211 208 203 206 211 209 204 205 206
140 123 334 333 348 103 234 218 195 186 186 204 222 267 279 287 287 279 277 284 288 290 289 288 281 267 253 239 227 222 219 220 215 207 208 210 209 206 209 210 206 203 204 206
131 167 195 230 249 233 244 240 197 184 215 237 233 262 283 289 294 300 297 290 292 294 294 293 289 278 264 247 233 228 227 219 212 207 210 213 212 210 210 207 203 202 202 204
131 222 238 255 269 269 250 258 232 212 221 237 259 264 275 284 296 301 300 301 305 306 306 300 293 288 278 260 243 232 230 219 209 210 214 218 214 210 208 205 203 202 202 206
150 220 257 274 267 251 259 261 256 242 234 242 262 272 271 284 296 296 298 304 307 309 308 304 300 293 285 271 255 240 233 221 209 214 220 218 211 208 207 205 202 201 203 204
187 188 216 269 297 321 270 250 234 221 213 210 236 252 286 312 309 303 304 307 302 303 303 301 297 289 284 275 258 246 238 218 212 219 222 216 211 210 208 204 200 202 201 200
165 163 194 276 347 243 244 244 216 228 243 226 244 269 286 283 286 283 275 274 296 304 304 302 297 292 289 282 271 255 237 219 218 222 223 217 211 211 206 202 204 204 199 200
161 158 185 208 251 270 287 274 214 212 271 240 237 266 281 294 308 292 273 278 293 295 293 291 288 289 289 288 282 264 246 229 226 228 226 219 212 210 205 205 205 200 196 200
100 148 180 192 222 252 251 257 149 135 282 266 211 284 301 331 326 296 297 308 305 299 297 296 297 296 293 293 287 262 253 239 236 235 230 219 211 210 208 207 202 194 193 199
150 173 201 217 237 261 259 263 128 218 255 309 317 309 304 281 260 278 296 300 295 295 299 301 302 300 296 298 290 267 261 251 249 243 230 219 212 211 209 202 195 187 189 190
185 188 207 196 221 256 237 156 200 234 287 308 306 299 291 284 282 290 298 300 303 305 306 309 309 306 304 302 287 274 270 268 260 238 228 220 211 206 202 194 190 185 185 190
209 202 202 202 225 247 194 211 243 281 291 292 291 291 293 293 296 303 304 306 308 307 309 311 309 307 306 302 283 276 281 281 261 239 230 221 208 202 196 191 187 183 186 191
239 216 231 256 261 260 266 268 271 272 276 285 288 292 296 296 301 307 309 309 310 309 310 310 313 311 309 309 297 278 284 281 258 247 237 217 204 201 196 194 190 188 189 192
220 216 243 262 274 284 259 260 276 285 292 298 301 300 301 302 302 302 305 306 304 304 304 305 305 303 302 305 302 295 288 277 261 251 237 217 205 199 198 200 199 196 198 195
203 227 249 266 275 280 291 297 296 298 302 305 308 308 307 302 298 301 301 298 299 301 302 303 302 302 304 306 303 300 292 271 257 255 239 218 205 198 195 197 205 215 207 210